Content
SEND FEEDBACK

Daily
Averages
Monthly
Summary
United States of America

BOSTON, MASSACHUSETTS


Home > North America > United States > Massachusetts
Elevation: 4 feet     Latitude: 42 22N     Longitude: 071 02W

WEATHER
 
SELECT A DAY
Number of Records: 202,493;   Date Range: 1/1/95 - 7/23/14
 
SHARE

PRINT THIS DATA

[ ← Previous Day ]
WEATHER ALMANAC - FEBRUARY 3, 2013
[ Next Day → ]
[ °C ]   °F
Weather ElementAverageHighLow
Temperature25.1 °F26.6 °F (11:16 am)23 °F (4:54 am)
Dewpoint18.5 °F19.9 °F (10:54 am)14 °F (1:54 am)
Humidity76.2 %81 % (6:54 am)63 % (1:54 am)
Barometer29.87 in30.04 in (1:54 am)29.73 in (11:54 pm)
Wind Speed8.3 mph12.7 mph (9:54 pm)
Weather ElementAverage
Visibility4.6 mi
Wind DirectionNNW (330.9 °)

Weather ElementTotal
Precipitation---
Heating Degree Days40.2 (Base 65)
Averaged from 34 records on February 3, 2013
WEATHER CONDITIONS BREAKOUT
WIND DIRECTION BREAKOUT
WEATHER BY HOUR - FEBRUARY 3, 2013
[ °C ]   °F
Local TimeTemperatureDewpointHumidityBarometerVisibilityWind DirectionWind SpeedGust SpeedPrecipitationEventsConditions
1:54 AM25.0 °F14.0 °F63 %30.04 in5.0 miWest (280°)6.9 mph0.00 inSnowLight Snow
2:54 AM24.1 °F16.0 °F71 %30.00 in4.0 miNNW (330°)9.2 mph0.00 inSnowLight Snow
3:54 AM24.1 °F16.0 °F71 %30.00 in7.0 miNNW (330°)4.6 mph0.00 inSnowLight Snow
4:54 AM23.0 °F17.1 °F78 %30.00 in9.0 miNorth (360°)3.5 mph0.00 inSnowLight Snow
5:54 AM23.0 °F17.1 °F78 %29.99 in7.0 miNorth (350°)4.6 mph0.00 inSnowLight Snow
6:36 AM23.0 °F17.6 °F80 %29.97 in2.5 miNNW (340°)6.9 mph0.00 inSnowLight Snow
6:54 AM23.0 °F18.0 °F81 %29.96 in3.0 miNorth (350°)5.8 mph0.00 inSnowLight Snow
7:54 AM23.0 °F18.0 °F81 %29.98 in8.0 miNNW (340°)6.9 mph0.00 inOvercast
8:54 AM24.1 °F18.0 °F77 %29.97 in10.0 miNNW (340°)6.9 mphOvercast
9:25 AM24.8 °F17.6 °F74 %29.96 in5.0 miNNW (340°)6.9 mph0.00 inSnowLight Snow
9:41 AM24.8 °F17.6 °F74 %29.96 in2.5 miNNW (330°)6.9 mph0.00 inSnowLight Snow
9:54 AM24.1 °F18.0 °F77 %29.95 in1.8 miNW (320°)6.9 mph0.00 inSnowLight Snow
10:29 AM24.8 °F19.4 °F80 %29.94 in2.5 miNW (320°)8.1 mph0.00 inSnowLight Snow
10:54 AM26.1 °F19.9 °F78 %29.92 in2.5 miNW (310°)5.8 mph0.00 inSnowLight Snow
11:16 AM26.6 °F19.4 °F74 %29.91 in3.0 miNW (320°)8.1 mph0.00 inSnowLight Snow
11:54 AM26.1 °F19.9 °F78 %29.88 in3.0 miNNW (330°)9.2 mph0.00 inSnowLight Snow
12:12 PM26.6 °F19.4 °F74 %29.86 in2.5 miNW (320°)11.5 mph0.00 inSnowLight Snow
12:54 PM26.1 °F19.9 °F78 %29.84 in2.5 miNNW (330°)11.5 mph0.00 inSnowLight Snow
1:14 PM26.6 °F19.4 °F74 %29.83 in3.0 miNW (320°)9.2 mph0.00 inSnowLight Snow
1:54 PM26.1 °F19.9 °F78 %29.82 in3.0 miNNW (330°)9.2 mph0.00 inSnowLight Snow
2:42 PM26.6 °F19.4 °F74 %29.81 in2.5 miNW (320°)11.5 mph0.00 inSnowLight Snow
2:54 PM26.1 °F19.9 °F78 %29.81 in2.5 miNNW (330°)9.2 mph0.00 inSnowLight Snow
3:15 PM26.6 °F19.4 °F74 %29.81 in5.0 miNNW (340°)9.2 mph0.00 inSnowLight Snow
3:39 PM26.6 °F19.4 °F74 %29.80 in4.0 miNNW (340°)8.1 mph0.00 inSnowLight Snow
3:54 PM26.1 °F19.9 °F78 %29.80 in2.5 miNNW (330°)6.9 mph0.00 inSnowLight Snow
4:14 PM26.6 °F19.4 °F74 %29.79 in3.0 miNNW (340°)9.2 mph0.00 inSnowLight Snow
4:54 PM26.1 °F19.9 °F78 %29.78 in3.0 miNNW (340°)9.2 mph0.00 inSnowLight Snow
5:54 PM25.0 °F19.9 °F81 %29.77 in4.0 miNNW (340°)10.4 mph0.00 inSnowLight Snow
6:54 PM25.0 °F19.0 °F78 %29.78 in7.0 miNNW (340°)9.2 mph0.00 inSnowLight Snow
7:54 PM25.0 °F19.0 °F78 %29.78 in4.0 miNNW (340°)9.2 mph0.00 inSnowLight Snow
8:54 PM25.0 °F18.0 °F75 %29.76 in7.0 miNNW (340°)8.1 mph0.00 inSnowLight Snow
9:54 PM25.0 °F19.0 °F78 %29.75 in5.0 miNNW (330°)12.7 mph0.00 inSnowLight Snow
10:54 PM24.1 °F18.0 °F77 %29.74 in10.0 miNW (320°)11.5 mph0.00 inOvercast
11:54 PM25.0 °F18.0 °F75 %29.73 in10.0 miNW (310°)8.1 mphOvercast
Hourly data recorded from KBOS, located miles away from Boston, Massachusetts







STORIES FROM OUR PARTNERS